FIN121 EFHK-VIDP

Flight info

Callsign FIN121
Flight time N/A
Altitude 38000
Route KOIVU Y123 LARTI DCT LUTAL DCT BERIL/N0466F370 DCT BOKSU/N0464F380 DCT TOXAR DCT ROBTU/N0476F370 DCT KENIN DCT REVDA/N0476F390 DCT UDROS UM859 KARDE UN644 ROLIN N644 ODILI DCT BARAD M747 SUBUT T923 ERLEV L850 BAKUV N701 LARGI B701 KRS A240 INRAK B449 DOLOS B475 NINOP A909 LEMOD N644 DI A466 ELKUX ELKUX6A
Aircraft A333/H-SDE3GHIJ2J3J5M1RVWXY/LB2D1

Departure

Time 2026-04-22 18:01
Airport Helsinki Vantaa Airport (EFHK)

Arrival

Time N/A
Airport Indira Gandhi International Airport (VIDP)
Time Latitude Longitude Altitude Speed Heading
2026-04-22 17:25 60.31464 24.95610 170 ft 0 kts 137°
2026-04-22 17:36 60.31470 24.95599 170 ft 3 kts 137°
2026-04-22 17:36 60.31484 24.95573 170 ft 3 kts 137°
2026-04-22 17:36 60.31498 24.95546 170 ft 3 kts 110°
2026-04-22 17:36 60.31505 24.95509 170 ft 3 kts 95°
2026-04-22 17:37 60.31503 24.95470 170 ft 3 kts 55°
2026-04-22 17:37 60.31500 24.95459 170 ft 0 kts 52°
2026-04-22 17:40 60.31509 24.95481 170 ft 4 kts 49°
2026-04-22 17:40 60.31533 24.95534 170 ft 6 kts 47°
2026-04-22 17:40 60.31567 24.95606 170 ft 8 kts 46°
2026-04-22 17:40 60.31612 24.95663 170 ft 8 kts
2026-04-22 17:41 60.31658 24.95619 171 ft 7 kts 315°
2026-04-22 17:41 60.31694 24.95548 171 ft 7 kts 310°
2026-04-22 17:41 60.31702 24.95493 173 ft 1 kts 274°
2026-04-22 17:41 60.31696 24.95458 174 ft 6 kts 244°
2026-04-22 17:42 60.31665 24.95380 174 ft 8 kts 229°
2026-04-22 17:42 60.31616 24.95273 173 ft 13 kts 227°
2026-04-22 17:42 60.31541 24.95108 174 ft 18 kts 227°
2026-04-22 17:42 60.31441 24.94891 171 ft 24 kts 227°
2026-04-22 17:43 60.31313 24.94609 164 ft 30 kts 227°
2026-04-22 17:43 60.31164 24.94278 162 ft 33 kts 228°
2026-04-22 17:43 60.31007 24.93924 162 ft 22 kts 229°
2026-04-22 17:43 60.30986 24.93746 164 ft 0 kts 299°
2026-04-22 17:55 60.30986 24.93745 164 ft 0 kts 299°
2026-04-22 17:55 60.30995 24.93721 164 ft 5 kts 308°
2026-04-22 17:55 60.31032 24.93649 163 ft 11 kts 317°
2026-04-22 17:56 60.31114 24.93621 162 ft 15 kts 26°
2026-04-22 17:56 60.31181 24.93751 162 ft 0 kts 47°
2026-04-22 17:59 60.31181 24.93752 162 ft 1 kts 47°
2026-04-22 18:00 60.31188 24.93766 162 ft 0 kts 47°
2026-04-22 18:00 60.31206 24.93805 162 ft 20 kts 47°
2026-04-22 18:00 60.31422 24.94268 165 ft 69 kts 47°
2026-04-22 18:00 60.31886 24.95293 178 ft 127 kts 47°
2026-04-22 18:01 60.32611 24.96882 181 ft 179 kts 39°
2026-04-22 18:01 60.33536 24.98862 513 ft 202 kts 41°
2026-04-22 18:01 60.34502 25.01064 1145 ft 219 kts 44°
2026-04-22 18:01 60.35503 25.03474 1845 ft 222 kts 42°
2026-04-22 18:02 60.36473 25.05930 2445 ft 226 kts 44°
2026-04-22 18:02 60.37406 25.08534 3038 ft 232 kts 46°
2026-04-22 18:02 60.38455 25.10980 3598 ft 232 kts 37°
2026-04-22 18:02 60.39539 25.13485 3937 ft 245 kts 54°
2026-04-22 18:03 60.39887 25.16963 3994 ft 267 kts 88°
2026-04-22 18:03 60.39192 25.20545 4010 ft 284 kts 117°
2026-04-22 18:03 60.38029 25.23810 3990 ft 287 kts 119°
2026-04-22 18:03 60.36916 25.27148 3987 ft 286 kts 115°
2026-04-22 18:04 60.35909 25.30578 3862 ft 285 kts 112°
2026-04-22 18:04 60.34969 25.34093 3731 ft 283 kts 110°
2026-04-22 18:04 60.33896 25.37406 3722 ft 291 kts 131°
2026-04-22 18:04 60.32125 25.39407 3733 ft 297 kts 166°
2026-04-22 18:05 60.30074 25.39447 3742 ft 296 kts 190°
2026-04-22 18:05 60.28029 25.38809 3740 ft 298 kts 190°
2026-04-22 18:05 60.25964 25.38322 3736 ft 299 kts 187°
2026-04-22 18:05 60.23895 25.37891 3729 ft 298 kts 196°
2026-04-22 18:06 60.22109 25.36078 3735 ft 283 kts 227°
2026-04-22 18:06 60.20719 25.33318 3746 ft 280 kts 233°
2026-04-22 18:06 60.19372 25.30476 3746 ft 282 kts 232°
2026-04-22 18:06 60.17986 25.27675 3746 ft 283 kts 231°
2026-04-22 18:07 60.17053 25.25854 3871 ft 283 kts 230°
2026-04-22 18:07 60.15119 25.22177 4555 ft 288 kts 229°
2026-04-22 18:07 60.13645 25.19425 5224 ft 291 kts 229°
2026-04-22 18:07 60.12151 25.16662 5955 ft 293 kts 228°
2026-04-22 18:08 60.10640 25.13881 6600 ft 297 kts 228°
2026-04-22 18:08 60.09103 25.11059 7270 ft 301 kts 229°
2026-04-22 18:08 60.07568 25.08249 7919 ft 305 kts 229°
2026-04-22 18:08 60.05984 25.05355 8584 ft 310 kts 230°